TimeEST,TemperatureF,Dew PointF,Humidity,Sea Level PressureIn,VisibilityMPH,Wind Direction,Wind SpeedMPH,Gust SpeedMPH,PrecipitationIn,Events,Conditions,WindDirDegrees,DateUTC
12:15 AM,32.0,21.2,64,30.28,10.0,West,3.5,-,N/A,,Clear,270,2013-01-05 05:15:00
12:35 AM,30.9,20.8,66,30.29,10.0,Calm,Calm,-,N/A,,Clear,0,2013-01-05 05:35:00
12:55 AM,29.7,20.7,69,30.29,10.0,Calm,Calm,-,N/A,,Clear,0,2013-01-05 05:55:00
1:15 AM,29.8,21.2,70,30.30,10.0,Calm,Calm,-,N/A,,Clear,0,2013-01-05 06:15:00
1:35 AM,27.7,21.2,77,30.30,10.0,WSW,3.5,-,N/A,,Clear,250,2013-01-05 06:35:00
2:15 AM,25.0,21.0,85,30.30,10.0,WNW,4.6,-,N/A,,Clear,290,2013-01-05 07:15:00
2:35 AM,28.0,21.2,76,30.31,10.0,SW,4.6,-,N/A,,Clear,220,2013-01-05 07:35:00
2:55 AM,27.9,20.8,75,30.31,10.0,WSW,3.5,-,N/A,,Clear,240,2013-01-05 07:55:00
3:15 AM,26.6,20.8,79,30.31,10.0,Calm,Calm,-,N/A,,Clear,0,2013-01-05 08:15:00
3:35 AM,27.3,21.4,78,30.31,10.0,West,3.5,-,N/A,,Clear,270,2013-01-05 08:35:00
3:55 AM,27.9,21.4,77,30.32,10.0,West,4.6,-,N/A,,Clear,260,2013-01-05 08:55:00
4:15 AM,27.3,21.2,78,30.32,10.0,Calm,Calm,-,N/A,,Clear,0,2013-01-05 09:15:00
4:35 AM,26.4,20.7,79,30.31,10.0,Calm,Calm,-,N/A,,Clear,0,2013-01-05 09:35:00
4:55 AM,23.9,19.8,84,30.31,10.0,Calm,Calm,-,N/A,,Clear,0,2013-01-05 09:55:00
5:15 AM,24.4,20.3,84,30.31,10.0,Calm,Calm,-,N/A,,Clear,0,2013-01-05 10:15:00
5:35 AM,22.3,19.2,88,30.31,10.0,Calm,Calm,-,N/A,,Clear,0,2013-01-05 10:35:00
5:55 AM,22.3,19.6,89,30.31,10.0,Calm,Calm,-,N/A,,Clear,0,2013-01-05 10:55:00
6:15 AM,20.8,18.7,91,30.32,10.0,Calm,Calm,-,N/A,,Clear,0,2013-01-05 11:15:00
6:35 AM,22.8,19.6,87,30.32,10.0,Calm,Calm,-,N/A,,Clear,0,2013-01-05 11:35:00
6:55 AM,20.8,18.7,91,30.33,10.0,Calm,Calm,-,N/A,,Clear,0,2013-01-05 11:55:00
7:15 AM,21.4,19.6,93,30.33,10.0,Calm,Calm,-,N/A,,Clear,0,2013-01-05 12:15:00
7:35 AM,21.4,19.4,92,30.34,10.0,Calm,Calm,-,N/A,,Clear,0,2013-01-05 12:35:00
7:55 AM,21.9,20.3,93,30.35,10.0,Calm,Calm,-,N/A,,Clear,0,2013-01-05 12:55:00
8:15 AM,23.0,20.8,91,30.35,10.0,Calm,Calm,-,N/A,,Clear,0,2013-01-05 13:15:00
8:35 AM,25.5,21.9,86,30.36,10.0,Calm,Calm,-,N/A,,Clear,0,2013-01-05 13:35:00
8:55 AM,29.8,24.3,80,30.37,10.0,Calm,Calm,-,N/A,,Clear,0,2013-01-05 13:55:00
9:15 AM,32.2,24.8,74,30.37,10.0,Calm,Calm,-,N/A,,Clear,0,2013-01-05 14:15:00
9:35 AM,33.8,24.1,68,30.39,10.0,Calm,Calm,-,N/A,,Clear,0,2013-01-05 14:35:00
9:55 AM,35.6,25.3,66,30.39,10.0,Calm,Calm,-,N/A,,Clear,0,2013-01-05 14:55:00
10:15 AM,36.7,22.8,57,30.39,10.0,Calm,Calm,-,N/A,,Clear,0,2013-01-05 15:15:00
10:55 AM,39.4,23.5,53,30.38,10.0,Calm,Calm,-,N/A,,Clear,0,2013-01-05 15:55:00
11:15 AM,41.2,24.1,51,30.38,10.0,Calm,Calm,-,N/A,,Clear,0,2013-01-05 16:15:00
11:55 AM,42.8,23.5,47,30.36,10.0,Calm,Calm,-,N/A,,Clear,0,2013-01-05 16:55:00
12:15 PM,44.1,23.2,44,30.34,10.0,Calm,Calm,-,N/A,,Clear,0,2013-01-05 17:15:00
12:35 PM,44.8,23.5,43,30.33,10.0,Calm,Calm,-,N/A,,Clear,0,2013-01-05 17:35:00
12:55 PM,45.7,23.7,42,30.33,10.0,South,3.5,-,N/A,,Clear,170,2013-01-05 17:55:00
1:15 PM,45.3,23.2,42,30.31,10.0,Calm,Calm,-,N/A,,Clear,0,2013-01-05 18:15:00
1:35 PM,46.0,22.3,39,30.30,10.0,Calm,Calm,-,N/A,,Clear,0,2013-01-05 18:35:00
1:55 PM,47.1,23.2,39,30.28,10.0,Calm,Calm,-,N/A,,Clear,0,2013-01-05 18:55:00
2:15 PM,48.2,22.3,36,30.28,10.0,Calm,Calm,-,N/A,,Clear,0,2013-01-05 19:15:00
2:35 PM,47.7,21.4,35,30.28,10.0,Calm,Calm,-,N/A,,Clear,0,2013-01-05 19:35:00
2:55 PM,48.2,21.9,36,30.28,10.0,Calm,Calm,-,N/A,,Clear,0,2013-01-05 19:55:00
3:15 PM,49.1,22.6,35,30.28,10.0,Calm,Calm,-,N/A,,Clear,0,2013-01-05 20:15:00
3:35 PM,48.7,23.0,36,30.28,10.0,Calm,Calm,-,N/A,,Clear,0,2013-01-05 20:35:00
3:55 PM,48.7,21.9,35,30.28,10.0,Calm,Calm,-,N/A,,Clear,0,2013-01-05 20:55:00
4:15 PM,48.7,22.1,35,30.28,10.0,Calm,Calm,-,N/A,,Clear,0,2013-01-05 21:15:00
4:35 PM,46.9,25.5,43,30.28,10.0,Calm,Calm,-,N/A,,Clear,0,2013-01-05 21:35:00
4:55 PM,43.0,28.6,57,30.27,10.0,Calm,Calm,-,N/A,,Clear,0,2013-01-05 21:55:00
5:15 PM,41.0,27.5,59,30.26,10.0,Calm,Calm,-,N/A,,Clear,0,2013-01-05 22:15:00
5:35 PM,38.1,28.4,68,30.27,10.0,Calm,Calm,-,N/A,,Clear,0,2013-01-05 22:35:00
5:55 PM,37.0,27.9,69,30.27,10.0,Calm,Calm,-,N/A,,Clear,0,2013-01-05 22:55:00
6:15 PM,37.4,27.7,68,30.27,10.0,Calm,Calm,-,N/A,,Clear,0,2013-01-05 23:15:00
6:35 PM,39.0,27.3,63,30.28,10.0,Calm,Calm,-,N/A,,Clear,0,2013-01-05 23:35:00
6:55 PM,38.7,28.9,68,30.28,10.0,Calm,Calm,-,N/A,,Clear,0,2013-01-05 23:55:00
7:15 PM,41.7,27.1,56,30.28,10.0,Calm,Calm,-,N/A,,Clear,0,2013-01-06 00:15:00
7:35 PM,43.3,25.7,50,30.27,10.0,South,3.5,-,N/A,,Clear,190,2013-01-06 00:35:00
7:55 PM,42.8,26.4,52,30.26,10.0,South,3.5,-,N/A,,Clear,180,2013-01-06 00:55:00
8:15 PM,41.5,27.5,57,30.27,10.0,Calm,Calm,-,N/A,,Clear,0,2013-01-06 01:15:00
8:55 PM,41.2,27.9,59,30.26,10.0,Calm,Calm,-,N/A,,Mostly Cloudy,0,2013-01-06 01:55:00
9:15 PM,42.8,27.0,54,30.27,10.0,SW,3.5,-,N/A,Rain,Light Rain,220,2013-01-06 02:15:00
9:35 PM,42.8,29.1,58,30.26,10.0,Calm,Calm,-,N/A,Rain,Light Rain,0,2013-01-06 02:35:00
9:55 PM,41.9,30.6,64,30.26,10.0,Calm,Calm,-,N/A,,Mostly Cloudy,0,2013-01-06 02:55:00
10:15 PM,41.4,32.0,69,30.26,10.0,Calm,Calm,-,N/A,,Overcast,0,2013-01-06 03:15:00
10:35 PM,41.9,30.2,63,30.27,10.0,Calm,Calm,-,N/A,,Overcast,0,2013-01-06 03:35:00
10:55 PM,42.1,29.5,61,30.27,10.0,SW,3.5,-,N/A,,Light Drizzle,220,2013-01-06 03:55:00
11:15 PM,42.3,29.1,60,30.25,10.0,Calm,Calm,-,N/A,,Mostly Cloudy,0,2013-01-06 04:15:00
11:35 PM,41.9,29.5,61,30.24,10.0,Calm,Calm,-,N/A,,Scattered Clouds,0,2013-01-06 04:35:00
11:55 PM,41.9,29.3,61,30.22,10.0,Calm,Calm,-,N/A,,Mostly Cloudy,0,2013-01-06 04:55:00